TimePDT,TemperatureF,Dew PointF,Humidity,Sea Level PressureIn,VisibilityMPH,Wind Direction,Wind SpeedMPH,Gust SpeedMPH,PrecipitationIn,Events,Conditions,WindDirDegrees,DateUTC
12:03 AM,53.6,53.6,100,30.10,1.0,SE,4.6,-,N/A,,Mist,140,2013-09-07 07:03:00
12:19 AM,53.6,53.6,100,30.09,2.5,SSE,3.5,-,N/A,,Overcast,150,2013-09-07 07:19:00
12:30 AM,53.6,53.6,100,30.10,1.8,SE,3.5,-,N/A,,Overcast,140,2013-09-07 07:30:00
12:41 AM,53.6,53.6,100,30.10,2.5,Calm,Calm,-,N/A,,Overcast,0,2013-09-07 07:41:00
12:53 AM,54.0,53.1,97,30.11,3.0,SE,4.6,-,N/A,,Overcast,140,2013-09-07 07:53:00
1:53 AM,54.0,53.1,97,30.10,6.0,Calm,Calm,-,N/A,,Overcast,0,2013-09-07 08:53:00
2:15 AM,53.6,53.6,100,30.10,1.8,ESE,3.5,-,N/A,,Overcast,120,2013-09-07 09:15:00
2:25 AM,53.6,53.6,100,30.10,0.5,Calm,Calm,-,N/A,Fog,Fog,0,2013-09-07 09:25:00
2:39 AM,55.4,53.6,94,30.10,1.5,Calm,Calm,-,N/A,,Overcast,0,2013-09-07 09:39:00
2:45 AM,55.4,53.6,94,30.10,3.0,Calm,Calm,-,N/A,,Overcast,0,2013-09-07 09:45:00
2:53 AM,55.0,54.0,96,30.10,4.0,Calm,Calm,-,N/A,,Overcast,0,2013-09-07 09:53:00
3:06 AM,55.4,55.4,100,30.09,1.8,Calm,Calm,-,N/A,,Overcast,0,2013-09-07 10:06:00
3:17 AM,55.4,55.4,100,30.09,0.8,Calm,Calm,-,N/A,,Mist,0,2013-09-07 10:17:00
3:25 AM,55.4,55.4,100,30.09,2.0,Calm,Calm,-,N/A,,Overcast,0,2013-09-07 10:25:00
3:33 AM,57.2,55.4,94,30.09,7.0,Calm,Calm,-,N/A,,Overcast,0,2013-09-07 10:33:00
3:53 AM,57.0,55.9,96,30.09,9.0,Calm,Calm,-,N/A,,Overcast,0,2013-09-07 10:53:00
4:23 AM,55.4,55.4,100,30.09,7.0,Calm,Calm,-,N/A,,Overcast,0,2013-09-07 11:23:00
4:53 AM,55.9,55.0,97,30.09,8.0,Calm,Calm,-,N/A,,Overcast,0,2013-09-07 11:53:00
5:01 AM,55.4,55.4,100,30.09,8.0,Calm,Calm,-,N/A,,Overcast,0,2013-09-07 12:01:00
5:53 AM,55.9,54.0,93,30.09,7.0,Calm,Calm,-,N/A,,Overcast,0,2013-09-07 12:53:00
6:53 AM,55.0,54.0,96,30.10,2.5,Calm,Calm,-,N/A,,Overcast,0,2013-09-07 13:53:00
7:04 AM,55.4,53.6,94,30.10,1.8,Calm,Calm,-,N/A,,Overcast,0,2013-09-07 14:04:00
7:14 AM,53.6,53.6,100,30.10,2.0,Calm,Calm,-,N/A,,Overcast,0,2013-09-07 14:14:00
7:44 AM,55.4,55.4,100,30.09,3.0,Calm,Calm,-,N/A,,Overcast,0,2013-09-07 14:44:00
7:53 AM,55.9,55.0,97,30.09,3.0,Calm,Calm,-,N/A,,Overcast,0,2013-09-07 14:53:00
8:49 AM,57.2,55.4,94,30.10,5.0,NE,3.5,-,0.00,Rain,Light Rain,50,2013-09-07 15:49:00
8:53 AM,57.0,55.9,96,30.11,5.0,NE,4.6,-,0.00,Rain,Light Rain,50,2013-09-07 15:53:00
9:02 AM,57.2,55.4,94,30.10,3.0,Calm,Calm,-,0.00,Rain,Light Rain,0,2013-09-07 16:02:00
9:34 AM,57.2,57.2,100,30.11,4.0,Calm,Calm,-,0.00,,Overcast,0,2013-09-07 16:34:00
9:53 AM,57.9,57.0,97,30.11,6.0,Calm,Calm,-,0.00,,Overcast,0,2013-09-07 16:53:00
10:20 AM,60.8,57.2,88,30.11,8.0,East,3.5,-,N/A,,Overcast,100,2013-09-07 17:20:00
10:46 AM,60.8,57.2,88,30.11,9.0,Calm,Calm,-,N/A,,Overcast,0,2013-09-07 17:46:00
10:53 AM,61.0,57.9,90,30.11,9.0,Calm,Calm,-,N/A,,Overcast,0,2013-09-07 17:53:00
11:53 AM,64.9,57.9,78,30.10,10.0,Calm,Calm,-,N/A,,Overcast,0,2013-09-07 18:53:00
12:53 PM,66.9,60.1,79,30.09,10.0,Calm,Calm,-,N/A,,Overcast,0,2013-09-07 19:53:00
1:53 PM,68.0,60.1,76,30.09,10.0,SE,4.6,-,N/A,,Scattered Clouds,130,2013-09-07 20:53:00
2:53 PM,69.1,60.1,73,30.07,10.0,East,3.5,-,N/A,,Clear,100,2013-09-07 21:53:00
3:53 PM,70.0,60.1,71,30.07,10.0,ESE,3.5,-,N/A,,Clear,110,2013-09-07 22:53:00
4:53 PM,68.0,57.9,70,30.06,10.0,SE,3.5,-,N/A,,Clear,140,2013-09-07 23:53:00
5:53 PM,66.0,57.9,75,30.06,10.0,Calm,Calm,-,N/A,,Clear,0,2013-09-08 00:53:00
6:53 PM,64.0,57.9,80,30.05,10.0,Calm,Calm,-,N/A,,Clear,0,2013-09-08 01:53:00
7:53 PM,61.0,57.9,90,30.05,10.0,Calm,Calm,-,N/A,,Clear,0,2013-09-08 02:53:00
8:53 PM,61.0,57.9,90,30.06,10.0,Calm,Calm,-,N/A,,Clear,0,2013-09-08 03:53:00
9:53 PM,57.0,55.0,93,30.07,9.0,Calm,Calm,-,N/A,,Clear,0,2013-09-08 04:53:00
10:53 PM,55.0,54.0,96,30.08,4.0,Calm,Calm,-,N/A,,Clear,0,2013-09-08 05:53:00
11:53 PM,54.0,53.1,97,30.08,6.0,Calm,Calm,-,N/A,,Clear,0,2013-09-08 06:53:00